Flag Weather past 2 weeks in Bad Neuenahr-Ahrweiler, Rhineland-Palatinate, Germany

Now
63 °F

Partly sunny.


Feels Like: 63 °F
Forecast: 47 / 64 °F
Wind: 8 mph from Southwest

Location: Bonn-Hangelar

Current Time: Nov 1, 2014 at 9:30:47 AM

Latest Report: Nov 1, 2014 at 9:00 AM


Visibility: 47 mi

Pressure: 30.11 "Hg

Humidity: 53%

Dew point: 46 °F

Location of Bad Neuenahr-AhrweilerLocation

Historic Weather in Bad Neuenahr-Ahrweiler — Graph

°F

Bad Neuenahr-Ahrweiler temperature yesterday

Maximum temperature yesterday: 67 °F (at 2:00 PM)
Minimum temperature yesterday: 58 °F (at 4:00 AM)
Average temperature yesterday: 62 °F

Past Weeks' High & Low Weather Summary

 TemperatureHumidityPressure
High72 °F (Oct 18, 5:00 PM)99% (Oct 29, 6:00 PM)30.29 "Hg (Oct 29, 6:00 PM)
Low38 °F (Oct 28, 8:00 AM)52% (Nov 1, 8:00 AM)29.55 "Hg (Oct 21, 4:00 PM)
Average54 °F82%30.10 "Hg
* Reported Oct 17 9:00 AM — Nov 1 8:00 AM, Bad Neuenahr-Ahrweiler, Weather by CustomWeather, © 2014

Note: Actual official high and low records may vary slightly from our data, if they occured in-between our weather recording intervals... More about our weather records

Advertising

Bad Neuenahr-Ahrweiler weather history for previous 24 hours

 ConditionsComfort  
Time TempWeatherWind HumidityBarometerVisibility
8:00 AM
Nov 1
64 °FPartly sunny.8 mph52%30.11 "Hg47 mi
7:00 AM63 °FPartly sunny.9 mph55%30.10 "Hg47 mi
6:00 AM62 °FPassing clouds.9 mph56%30.11 "Hg47 mi
5:00 AM62 °FPassing clouds.9 mph57%30.11 "Hg43 mi
4:00 AM63 °FOvercast.9 mph55%30.11 "Hg43 mi
3:00 AM62 °FOvercast.9 mph56%30.13 "Hg43 mi
2:00 AM62 °FOvercast.9 mph59%30.14 "Hg43 mi
1:00 AM62 °FOvercast.9 mph57%30.15 "Hg40 mi
12:00 AM62 °FClear.8 mph59%30.15 "Hg40 mi
11:00 PM
Oct 31
62 °FPassing clouds.9 mph59%30.16 "Hg43 mi
10:00 PMN/APassing clouds.No windN/AN/A5 mi
9:00 PM62 °FPassing clouds.9 mph60%30.17 "Hg37 mi
8:00 PM63 °FPassing clouds.8 mph59%30.17 "Hg31 mi
7:00 PM62 °FOvercast.7 mph63%30.17 "Hg31 mi
6:00 PM62 °FOvercast.6 mph67%30.17 "Hg31 mi
5:00 PM64 °FOvercast.3 mph66%30.17 "Hg31 mi
4:00 PM67 °FOvercast.2 mph61%30.17 "Hg31 mi
3:00 PM67 °FOvercast.3 mph62%30.17 "Hg31 mi
2:00 PM67 °FOvercast.3 mph59%30.18 "Hg31 mi
1:00 PM66 °FOvercast.3 mph59%30.19 "Hg31 mi
12:00 PM66 °FPassing clouds.8 mph59%30.20 "Hg2 mi
11:00 AM63 °FOvercast.6 mph66%30.21 "Hg25 mi
10:00 AM61 °FOvercast.6 mph70%30.21 "Hg31 mi
9:00 AM60 °FOvercast.8 mph71%30.20 "Hg31 mi
Weather by CustomWeather, © 2014

See weather overviewHow to use our weather pages